Regional Weather Roundup
Issued by NWS New Orleans/Baton Rouge, LA

Home | Current Version | Previous Version | Text Only | Print | Product List | Glossary On
Versions: 1 2 3 4 5 6 7 8 9 10 11 12 13 14 15 16 17 18 19 20 21 22 23 24 25 26 27 28 29 30 31 32 33 34 35 36 37 38 39 40 41 42 43 44 45 46 47 48 49 50
547
ASUS44 KLIX 281610
RWRLIX
NEW ORLEANS REGIONAL WEATHER ROUNDUP
NATIONAL WEATHER SERVICE NEW ORLEANS LA
1000 AM CST FRI NOV 28 2014

NOTE: "FAIR" INDICATES FEW OR NO CLOUDS BELOW 12,000 FEET WITH NO
      SIGNIFICANT WEATHER AND/OR OBSTRUCTIONS TO VISIBILITY.
      SKY/WX - SKY CONDITION AND SIGNIFICANT WEATHER.
      TMP - AIR TEMPERATURE.     DP    - DEWPOINT TEMPERATURE.
      RH  - RELATIVE HUMIDITY.   PRES  - PRESSURE.
      HI  - HEAT INDEX.          WCI   - WIND CHILL INDEX.

*  THESE STATIONS ARE NOT NWS OR FAA STATIONS AND ARE NOT UNDER
   NWS QUALITY CONTROL.

LAZ038-040-048-061>063-065>067-069-281700-
SOUTHEAST LOUISIANA

CITY           SKY/WX    TMP DP  RH WIND       PRES   REMARKS
N.O. AUDUBON     N/A     55  38  52 MISG        N/A
N.O. INTL ARPT SUNNY     52  36  54 E8        30.44R
N.O. LAKEFRONT SUNNY     52  39  61 E7        30.45S
N.O. DOWNTOWN*   N/A     52  36  54 E3        30.45S
SLIDELL        SUNNY     50  31  48 E9        30.44F
BATON ROUGE    SUNNY     50  32  50 E8        30.44S
BOOTHVILLE     SUNNY     56  45  66 NE9       30.43R
BELLE CHASSE   SUNNY     55  37  50 E9        30.44R
BOGALUSA*        N/A     49  32  51 E3        30.46F
NEW ROADS*       N/A     48  33  54 E7        30.43F
GONZALES*        N/A     53  36  52 E5        30.43F
HAMMOND*       SUNNY     50  30  46 E3        30.46F
HOUMA*         SUNNY     54  39  58 E8        30.43S
PORT FOURCHON* SUNNY     57  46  67 E12       30.44F

$$

MSZ070-080>082-281700-
SOUTHERN MISSISSIPPI

CITY           SKY/WX    TMP DP  RH WIND       PRES   REMARKS
MCCOMB         SUNNY     47  29  49 SE8       30.43F
GULFPORT       SUNNY     48  31  51 E9        30.45F
BILOXI         SUNNY     49  30  48 NE6       30.45F
PASCAGOULA     SUNNY     49  32  52 VRB5      30.45F
STENNIS ARPT*  SUNNY     41  27  56 VRB6      30.45F

$$

COASTAL OBSERVATIONS
LAKE AND NEARSHORE STATIONS

STATION/POSITION TIME  TEMP    WIND        PRES    WAVE
                       AIR SEA DIR/SP/G            HT/PER
                 (UTC) (F)     (DEG/KT/KT) (MB)    (FT/S)
PASCAGOULA       1600   48      50/  9/ 10 1030.7
WAVELAND YACHT   1600   47      80/  7/  8 1030.3
GRAND ISLE       1600   54 59   70/  9/ 13 1030.5
SOUTHWEST PASS   1600   57                 1029.8
NEW CANAL        1600   49 53   70/ 11/ 12 1031.1
SHELL BEACH      1600   51 50   60/ 11/ 13 1030.6

OFFSHORE STATIONS

STATION/POSITION TIME  TEMP    WIND        PRES    WAVE
                       AIR SEA DIR/SP/G            HT/PER
                 (UTC) (F)     (DEG/KT/KT) (MB)    (FT/S)
64 S DAUPHIN ISL 1500   56 71   70/ 12/ 14 1030.7    4/ 5

$$




USA.gov is the U.S. government's official web portal to all federal, state and local government web resources and services.